Wind_Speed
50 50 51 51 52 53 54 55 56 57 58 58 58 58 58 59 60 60 60 61 62 63 60 57 58 57 56 56 58 61 63 64 66 69 70 70 68 68 70 73 74 75 77 78 74 68 67 69 66 57 49 43 38 35 36 37 39 41 42 43 44 45 46 49 55 61 62 60 58 57 57 60 65 65 64 64 64 63 63 64 67 70 71 71 70
52 54 54 52 53 55 56 56 58 59 59 59 59 60 60 61 61 61 62 63 64 62 58 57 59 58 57 58 59 62 63 64 67 69 70 69 69 69 71 74 76 76 78 81 81 76 76 79 76 67 58 49 43 40 39 40 42 43 43 44 45 46 45 48 52 58 62 61 59 58 57 58 62 65 65 65 65 65 65 64 65 68 70 71 72
53 52 51 53 56 57 56 57 59 60 60 60 61 61 62 62 61 62 63 63 64 60 55 58 60 58 59 61 62 63 64 66 68 69 68 68 69 70 72 75 78 78 79 82 83 82 81 84 84 79 69 55 46 44 44 44 44 43 42 43 45 46 46 46 49 54 59 61 60 59 58 58 59 62 64 66 66 66 67 66 65 66 68 70 72
50 48 50 56 59 56 57 59 60 60 61 61 61 61 62 62 62 63 63 63 62 58 55 59 60 59 62 65 64 63 64 67 69 69 68 67 69 71 73 76 78 77 80 83 85 84 84 85 87 85 75 60 48 45 46 45 44 42 42 42 44 46 46 46 47 50 54 59 60 59 59 59 59 59 62 65 67 67 68 68 67 66 67 69 71
51 50 53 56 55 54 58 61 60 61 62 61 60 60 62 63 65 65 63 62 61 57 57 60 61 62 66 67 64 62 64 68 69 68 68 68 70 73 74 77 78 77 80 84 87 87 86 89 91 87 79 66 52 45 44 44 43 43 42 42 43 45 47 46 46 48 51 55 59 60 59 59 60 59 60 63 67 68 68 69 70 69 68 68 69
51 49 49 51 53 57 61 62 61 62 62 60 60 61 63 65 67 65 63 61 59 56 57 61 64 67 69 66 63 62 65 68 68 68 68 70 72 74 76 79 78 76 80 84 88 89 88 91 93 89 81 71 58 48 45 44 44 44 44 43 43 43 46 46 46 47 49 52 56 59 60 60 60 60 60 62 65 67 69 70 71 72 70 70 70
52 50 49 51 56 61 63 63 64 64 62 61 61 62 64 66 67 64 61 59 56 54 57 63 68 70 68 65 63 63 65 68 68 68 69 72 73 75 78 80 78 78 82 85 89 91 92 94 95 90 83 74 63 53 48 45 45 46 45 44 43 43 44 46 46 47 48 51 53 56 59 60 61 61 62 63 64 66 68 70 72 73 73 72 71
55 54 54 56 59 62 64 65 66 65 62 62 62 63 65 67 65 62 59 57 55 55 58 66 70 68 65 64 63 63 65 67 68 69 71 73 74 76 79 80 80 81 84 88 91 94 96 97 96 91 85 77 68 58 52 48 47 47 46 45 43 43 44 45 46 47 48 49 51 53 57 60 61 62 64 64 65 66 68 70 73 75 75 75 74
57 59 59 60 62 65 66 67 66 63 63 63 63 63 65 64 61 59 57 56 55 56 61 68 69 66 64 64 63 63 66 68 68 69 71 73 74 77 80 81 83 85 88 91 95 97 98 99 97 92 87 80 71 62 55 50 49 49 49 46 44 44 45 45 46 47 48 49 50 52 54 58 61 62 64 66 67 68 68 69 73 76 77 77 77
61 61 61 63 65 66 66 65 63 63 64 64 62 60 59 59 57 55 54 55 56 59 65 69 68 68 69 68 65 65 67 68 70 70 71 72 75 79 82 83 84 87 91 94 97 98 99 99 98 94 89 82 73 64 57 52 51 51 51 49 46 45 45 46 46 47 49 49 50 51 52 55 59 61 63 65 67 70 71 70 72 77 79 79 79
63 63 64 64 60 56 58 62 64 64 64 61 58 57 56 55 54 52 53 56 58 62 66 68 70 72 72 70 67 67 68 69 70 70 70 72 76 80 83 84 87 91 94 96 98 99 100 101 100 96 90 83 74 65 59 54 52 53 53 51 49 47 46 46 47 48 49 49 50 50 51 52 56 58 59 61 64 69 72 72 73 76 79 81 81
64 64 61 57 51 50 55 62 64 63 62 60 58 57 57 55 53 53 56 58 60 64 67 69 72 73 70 68 69 69 69 70 70 70 71 72 76 80 84 88 92 95 97 98 100 101 102 102 101 96 90 83 74 66 60 56 55 55 54 53 51 49 47 47 47 48 49 50 50 50 50 50 52 54 55 57 61 65 70 73 75 77 79 81 83
60 58 54 51 49 48 52 58 62 67 71 68 59 56 58 57 54 56 59 61 64 67 70 71 73 71 68 69 71 73 73 72 72 72 73 74 78 83 88 93 96 98 99 101 102 102 103 104 103 98 90 83 74 67 63 60 58 57 55 54 52 50 49 47 47 47 48 49 50 50 50 50 50 51 51 53 58 63 66 69 73 77 79 81 83
51 48 48 50 51 50 52 58 66 72 73 64 54 54 57 57 58 61 65 67 69 71 72 73 73 70 70 72 74 75 75 75 76 77 77 79 84 90 94 97 98 101 102 102 102 103 104 105 104 99 92 82 74 68 66 64 63 61 57 55 53 51 49 48 47 47 47 48 49 50 49 49 50 49 49 50 55 60 63 65 69 74 78 81 83
44 42 45 49 53 56 58 61 66 68 64 57 55 57 57 59 63 66 69 72 74 74 74 74 72 71 72 74 76 78 79 81 82 81 82 86 91 95 97 99 101 103 103 102 103 105 106 106 103 99 91 81 74 71 70 70 69 65 62 58 55 52 50 49 48 47 46 46 47 48 48 48 49 48 47 47 52 56 59 61 64 69 75 80 83
39 42 47 48 51 55 59 63 67 67 64 63 64 63 62 64 66 67 72 77 78 76 75 74 72 71 73 76 79 80 82 84 85 86 89 92 95 97 99 101 103 103 103 103 105 107 107 106 102 96 86 78 74 74 75 75 72 69 65 61 57 54 52 50 48 46 45 45 44 45 46 47 48 47 44 44 48 53 56 58 60 64 71 77 81
33 40 49 52 53 55 57 59 62 63 64 67 68 67 65 67 69 72 79 83 79 76 75 74 72 72 74 78 82 83 85 88 90 92 94 95 96 98 101 103 103 103 104 106 107 109 108 104 97 88 80 77 78 79 79 77 74 70 67 63 59 56 54 51 48 46 44 43 42 42 43 45 46 45 42 41 45 49 52 55 57 60 66 74 79
36 43 49 53 55 56 55 56 57 58 58 59 62 64 67 71 74 78 83 83 78 76 76 76 75 74 77 81 85 87 90 94 96 97 98 99 100 102 104 103 104 105 106 108 110 109 104 96 87 80 78 80 83 83 81 78 74 70 67 63 59 57 55 52 49 46 43 40 40 40 41 42 43 43 40 39 42 45 48 51 54 57 62 69 76
45 48 48 47 50 52 55 56 55 54 56 60 65 70 73 77 80 83 84 83 81 80 80 79 78 78 80 85 88 91 95 98 100 102 103 104 104 105 104 104 105 107 109 111 110 103 93 86 81 80 82 85 86 84 81 77 74 70 66 62 59 58 56 53 49 46 42 39 38 38 39 39 40 40 39 37 40 43 44 48 52 55 59 66 74
50 52 51 46 44 49 54 57 58 59 63 68 70 73 76 79 82 84 84 84 84 83 81 80 79 81 85 89 93 96 100 103 105 107 107 106 106 106 105 106 107 109 111 109 101 91 85 84 84 85 86 86 85 81 78 75 72 69 65 61 59 58 56 52 49 46 42 39 36 36 36 37 37 37 36 37 39 40 42 45 50 53 57 63 71
52 54 54 52 53 58 64 66 67 68 69 70 72 76 79 80 80 80 81 82 81 80 79 79 81 84 89 94 98 102 106 107 108 108 108 107 107 106 107 108 109 108 106 100 90 85 86 87 87 85 85 83 80 76 74 72 70 67 63 60 58 56 54 51 48 44 41 38 36 34 33 34 34 34 35 36 38 38 40 43 48 51 55 61 68
55 55 55 57 61 66 70 69 68 69 71 74 78 79 78 76 76 77 79 78 77 77 80 84 86 90 95 99 104 107 109 108 108 108 108 107 107 107 108 108 107 104 99 92 87 87 90 89 87 84 82 79 75 73 71 69 66 63 60 57 56 54 51 49 46 43 39 37 34 32 30 30 32 33 34 36 37 37 39 41 46 50 54 59 65
56 56 56 58 62 67 69 69 70 73 75 76 75 74 74 75 76 78 79 79 80 85 90 93 95 98 102 105 107 108 108 107 107 108 108 108 108 108 107 104 102 100 96 92 91 93 93 91 88 86 82 78 75 72 69 66 62 59 56 55 53 51 48 45 43 41 38 34 32 29 27 28 30 32 34 36 37 37 38 41 44 48 52 58 63
59 59 58 58 61 66 69 71 74 75 75 74 74 75 76 78 79 81 83 87 91 96 98 99 100 103 105 107 107 107 107 107 108 108 109 109 108 105 101 98 96 95 94 94 95 96 95 92 90 86 82 78 74 70 66 62 58 54 53 51 49 47 45 42 40 38 35 32 29 27 26 27 28 30 33 35 35 35 37 40 43 47 51 56 61
64 63 61 60 63 67 70 71 71 72 73 75 77 80 82 84 86 89 92 95 98 100 100 100 102 104 105 106 106 106 107 107 108 108 106 104 99 94 90 90 92 92 94 96 97 96 94 91 87 84 80 75 70 65 61 57 53 51 50 48 46 44 41 39 37 36 33 29 27 26 25 25 26 28 31 32 31 32 34 37 40 44 49 54 58
67 67 66 66 68 71 73 72 72 74 76 80 83 87 90 92 93 94 95 96 97 98 99 100 102 103 104 105 106 106 107 106 105 103 99 95 90 86 85 88 91 93 95 97 96 94 90 86 83 80 76 70 65 60 56 52 49 48 46 44 42 41 38 36 35 33 30 27 26 25 24 24 25 27 29 29 28 28 31 34 37 41 46 50 54
72 72 72 73 74 75 76 77 79 82 84 86 88 89 90 90 91 92 93 94 95 97 99 100 101 102 103 105 105 104 104 103 100 96 94 92 90 87 87 90 93 96 97 96 93 89 85 82 79 75 70 65 60 56 52 48 45 45 43 41 39 38 35 34 33 30 27 25 24 24 22 22 23 25 27 28 27 27 29 32 35 39 43 47 51
76 78 80 81 80 78 78 80 82 84 84 85 86 87 87 87 88 89 91 93 95 97 98 99 101 103 103 102 100 100 100 98 94 92 93 94 92 90 91 93 95 97 96 92 88 84 82 78 74 69 64 60 56 52 48 44 42 41 40 38 36 35 33 32 30 28 25 24 24 22 22 22 23 24 27 27 27 27 28 30 33 37 40 44 49
80 84 86 86 84 81 81 82 83 83 83 84 85 84 84 84 86 90 93 94 94 96 99 101 102 100 97 97 98 99 96 92 91 94 97 96 94 94 95 96 96 95 92 88 84 82 79 75 69 64 59 56 52 48 44 41 39 38 37 36 34 33 32 30 28 25 24 24 23 22 21 22 23 25 27 27 26 27 28 29 32 35 37 41 46
85 88 90 89 86 85 85 84 83 83 83 83 82 81 83 86 90 93 93 93 96 99 101 100 97 94 95 99 100 96 91 90 95 99 99 97 97 97 97 97 96 93 89 85 83 80 76 70 64 60 56 52 49 45 40 38 37 36 35 34 32 31 30 28 26 24 24 24 24 22 22 22 23 24 27 27 25 26 27 28 30 32 35 39 44
90 91 91 88 85 83 83 84 85 85 85 84 84 85 88 91 93 94 95 97 100 101 100 98 96 97 100 100 95 91 91 96 100 101 100 99 99 98 98 97 94 90 87 85 82 77 72 65 59 56 52 49 45 41 38 35 34 33 33 33 31 29 28 26 24 24 25 26 24 23 22 22 23 23 25 25 24 24 25 26 27 29 33 37 41
88 85 81 78 79 81 83 86 88 88 87 87 88 90 92 94 96 98 100 101 101 101 101 101 100 99 97 93 90 92 96 100 100 100 100 100 99 98 98 96 92 89 87 85 80 73 66 61 56 52 49 46 42 39 35 33 32 32 32 31 30 28 26 25 24 25 27 27 25 24 23 23 22 22 23 23 22 21 21 23 24 26 31 35 38
75 72 73 76 81 85 89 90 91 90 90 91 92 93 95 96 98 101 102 103 103 103 102 99 95 91 90 90 92 96 98 99 99 100 100 99 99 98 97 94 91 89 86 81 75 68 62 58 53 49 45 43 40 37 34 32 31 31 30 29 28 27 26 24 24 28 30 28 27 26 24 23 23 22 22 23 22 20 18 19 21 24 29 33 37
74 77 82 86 88 89 90 90 91 92 93 93 93 94 96 99 102 104 104 104 102 98 94 89 87 87 89 92 94 96 97 98 100 100 100 99 98 97 95 93 91 88 82 76 70 64 59 54 50 46 43 40 38 35 33 32 31 30 29 28 27 27 26 24 26 31 32 30 29 28 26 25 24 22 23 24 23 19 16 16 19 23 28 32 36
84 87 89 90 89 89 89 91 92 93 93 94 95 98 102 104 104 103 100 97 93 89 87 86 87 88 90 92 94 95 97 99 101 101 100 99 97 96 94 92 89 83 76 70 65 61 56 51 47 43 41 39 37 35 33 32 32 30 29 27 27 27 26 25 29 34 35 33 31 30 28 26 25 24 24 24 22 19 16 15 17 23 28 31 36
90 91 90 89 89 90 91 92 93 94 96 99 102 103 103 101 98 94 90 88 86 85 86 87 88 89 91 92 94 96 98 100 101 100 99 98 96 94 92 89 84 77 71 66 62 58 53 49 45 41 39 37 36 34 32 32 32 31 30 28 28 28 27 27 31 37 39 35 32 32 31 28 26 26 26 24 22 20 18 14 16 21 26 30 35
92 92 91 91 92 93 95 96 98 100 102 103 102 98 94 91 88 86 86 85 85 86 87 88 90 91 92 94 95 97 99 100 100 99 98 96 94 92 89 83 77 71 66 62 58 54 50 47 44 40 38 37 35 34 33 32 32 32 31 30 29 29 30 30 34 40 42 38 34 34 33 30 28 28 28 26 23 22 20 16 15 19 25 29 33
93 93 92 93 95 97 99 101 102 102 100 96 92 89 86 85 85 85 86 87 88 88 89 91 92 93 93 95 97 98 99 100 99 98 96 94 92 88 83 76 70 66 63 60 55 51 49 46 43 39 37 36 35 34 32 31 31 32 32 32 31 31 32 32 36 43 45 40 37 36 35 33 30 30 30 28 25 23 21 18 16 17 23 28 31
92 92 93 96 100 102 103 102 99 95 91 88 86 86 86 86 86 87 88 89 90 91 92 93 94 94 95 96 97 99 99 99 98 97 94 91 87 82 75 70 65 63 60 57 53 49 47 45 42 39 36 35 34 33 31 31 31 31 32 32 33 33 34 35 38 45 48 44 39 38 38 35 33 32 32 30 27 25 23 21 18 17 22 27 30
91 95 99 101 102 101 98 95 91 88 87 87 87 87 88 88 89 90 90 91 92 93 94 95 95 96 96 97 98 98 98 97 96 93 90 85 79 73 68 64 61 58 56 54 51 48 45 43 41 38 36 34 33 31 30 30 30 31 31 31 33 34 35 36 40 47 50 47 43 41 40 38 35 34 34 33 31 28 25 24 21 19 21 26 30
99 100 100 98 95 92 90 89 88 88 88 89 89 89 90 91 91 92 93 94 95 96 96 97 97 97 97 96 96 95 94 93 90 87 82 77 71 66 63 59 56 54 52 51 48 45 43 41 39 37 35 33 31 30 30 29 29 30 30 30 32 34 36 38 42 49 53 51 46 44 42 41 38 37 36 35 34 31 28 27 25 22 21 25 30
97 94 92 89 88 88 88 88 89 89 90 90 91 92 92 93 95 95 96 97 97 97 98 97 97 96 94 93 92 90 87 84 81 77 72 68 65 61 58 55 52 50 49 47 45 43 41 39 37 36 35 33 31 30 29 29 29 29 29 30 32 34 37 39 43 50 55 55 50 47 45 43 41 40 39 38 37 36 33 30 29 26 24 26 31
89 88 88 88 88 88 89 90 91 91 92 92 93 94 95 96 97 97 97 98 97 97 96 95 93 91 89 86 84 81 78 75 71 68 64 62 59 57 54 51 48 47 45 44 42 40 39 37 36 34 34 33 31 29 28 28 28 29 29 30 32 34 37 40 44 50 57 58 54 51 48 46 45 43 42 41 40 39 37 35 33 31 29 29 33
88 89 89 90 90 90 91 92 93 93 94 94 95 96 97 97 97 97 97 96 94 92 90 88 85 83 80 78 75 72 69 66 63 61 59 57 54 52 49 46 45 44 43 41 40 38 37 36 34 33 32 32 31 29 28 27 27 28 29 30 31 34 37 40 44 51 58 61 59 55 52 49 48 47 46 44 43 42 41 40 38 36 34 33 36
90 91 92 92 92 93 93 94 94 95 95 95 96 96 96 95 95 93 92 89 87 84 82 79 77 74 72 70 67 65 62 60 58 57 55 53 50 47 44 42 41 40 40 39 38 36 35 34 33 32 30 30 29 29 28 27 27 28 29 30 31 33 37 41 45 50 58 62 62 59 56 53 50 49 49 48 46 45 45 44 43 41 39 37 38
92 93 94 94 94 94 95 95 95 95 94 94 94 93 93 91 90 87 85 82 79 76 73 70 68 66 64 63 61 59 57 54 53 52 51 49 46 43 40 39 38 37 36 35 35 34 34 33 32 31 29 28 27 27 27 27 27 28 29 31 32 33 36 40 44 50 57 63 65 63 60 57 54 53 52 52 50 48 47 47 47 45 44 41 41
95 95 95 94 94 95 95 95 95 94 93 92 91 90 89 87 84 80 77 73 70 68 65 63 62 60 59 57 56 54 51 48 46 46 45 45 43 40 38 37 36 34 33 32 32 31 31 30 30 29 28 26 25 25 25 25 26 27 28 30 32 34 36 39 43 48 55 62 67 67 64 61 59 56 55 54 54 53 51 50 50 49 48 46 45
96 96 95 95 94 94 94 93 93 92 91 90 89 87 84 80 76 72 69 66 63 61 60 59 58 57 55 53 52 49 46 43 41 40 40 40 40 38 37 36 34 33 32 30 29 29 28 27 27 26 25 24 24 23 23 23 24 25 26 27 30 33 35 38 41 46 52 59 66 70 69 66 63 61 59 57 57 56 54 53 53 52 51 50 49
94 94 94 93 92 92 91 90 90 89 88 86 83 80 76 72 68 65 63 61 59 58 57 56 55 54 51 49 48 46 42 39 37 36 36 37 37 36 35 34 33 32 31 30 28 27 26 26 24 23 22 22 21 21 21 21 22 23 24 25 27 30 33 36 39 44 49 55 63 70 72 70 68 65 63 61 59 59 58 57 55 55 54 53 53
91 90 90 89 88 87 86 85 84 83 81 78 75 72 69 66 63 61 59 57 56 55 54 52 51 49 47 45 44 42 39 37 35 33 33 34 35 34 33 33 32 31 30 29 28 27 27 26 24 23 22 21 21 20 20 20 20 21 22 23 24 27 30 33 36 40 45 51 58 67 72 74 72 70 68 65 63 62 61 60 59 58 57 56 56
86 85 84 82 81 80 79 78 76 75 73 70 68 66 64 62 61 59 57 54 52 51 49 48 46 44 42 41 40 40 38 37 35 33 32 33 33 32 32 31 31 30 29 28 27 27 27 26 25 24 23 22 21 21 20 20 20 20 21 22 23 24 26 29 32 36 40 46 53 61 69 74 75 74 72 70 67 66 65 64 62 61 60 59 58
Wind_Direction
307 307 307 307 308 308 308 309 309 310 311 312 313 313 313 313 313 314 314 314 316 317 316 317 319 320 320 320 321 322 322 323 323 323 323 323 324 324 326 330 334 338 340 341 343 343 343 343 342 335 324 313 304 296 289 290 295 296 291 283 275 269 268 270 269 267 265 262 257 252 244 239 237 234 233 237 240 239 237 234 233 232 230 229 228
306 307 305 305 307 307 306 308 310 310 311 311 311 311 312 312 312 312 313 314 316 316 315 316 318 318 318 318 319 320 320 320 321 321 322 323 323 323 324 327 332 336 338 338 340 341 340 340 339 336 329 317 303 295 291 293 298 298 293 287 279 271 267 269 270 268 267 264 261 257 251 243 239 236 234 234 237 239 240 237 235 233 232 230 228
306 307 304 304 306 305 306 309 310 311 310 310 310 311 311 311 311 311 312 313 315 313 312 316 318 317 317 317 318 319 318 319 320 322 323 323 322 322 323 326 329 333 335 336 337 338 338 338 336 334 331 323 307 296 294 296 299 299 296 290 282 274 268 268 269 268 267 266 263 260 256 250 243 238 236 235 235 237 239 240 238 235 234 232 229
304 303 299 302 304 303 306 310 310 309 308 308 309 309 309 309 309 310 311 312 314 310 310 315 317 316 316 317 316 316 317 319 321 323 324 322 321 321 322 325 327 329 332 335 335 335 335 335 334 332 331 325 312 300 295 297 299 300 298 293 286 278 272 268 266 265 265 265 264 262 258 254 249 242 237 236 236 236 237 239 240 238 235 233 231
302 301 300 302 302 301 305 309 307 306 307 307 307 307 307 308 308 308 309 311 311 309 311 316 317 315 316 315 315 315 317 320 322 324 324 322 321 321 322 323 324 325 329 332 333 333 333 332 331 331 330 327 318 306 299 298 300 302 301 296 289 282 276 271 267 264 262 262 263 262 260 256 253 247 241 237 236 236 236 237 239 239 238 235 233
303 304 302 300 298 299 304 306 304 304 305 305 305 306 306 307 306 307 309 309 309 309 311 315 316 316 315 314 313 314 317 320 322 323 323 321 321 321 322 322 322 322 325 328 330 330 329 328 328 329 329 327 322 313 305 302 303 304 303 299 292 284 279 274 269 264 261 259 259 260 260 257 254 251 246 241 237 236 236 236 237 238 239 237 234
303 303 299 296 297 299 303 305 304 304 303 303 304 305 305 305 306 307 308 307 307 307 308 313 315 315 314 313 312 313 316 319 321 321 321 321 321 321 322 322 320 319 322 324 326 327 326 326 327 327 328 327 323 316 309 305 305 305 304 300 295 287 280 275 270 266 261 258 257 257 257 256 254 252 249 245 241 238 236 235 236 237 238 238 236
302 303 301 298 299 300 302 303 303 302 301 302 304 304 304 304 305 306 306 305 305 304 306 311 314 313 312 312 311 311 314 317 318 319 320 321 320 320 322 321 318 318 319 321 323 324 324 324 325 326 327 326 323 316 311 307 306 306 304 301 297 291 283 277 272 268 264 260 256 255 254 254 253 251 249 247 244 241 237 235 235 236 236 237 237
302 303 302 301 303 303 303 303 301 300 300 301 303 303 302 303 304 304 303 303 303 303 305 309 311 310 310 310 310 310 312 315 316 317 319 319 319 320 321 319 317 317 319 320 321 321 322 323 324 325 326 325 322 316 311 309 309 309 306 302 298 292 286 280 275 271 267 263 258 255 253 253 252 250 248 246 244 242 240 236 234 235 235 235 236
302 304 304 306 308 305 302 301 300 298 300 301 302 301 300 301 303 301 300 301 302 303 305 308 309 309 309 309 309 310 312 314 315 316 316 317 317 319 319 318 317 317 318 318 318 319 320 322 323 324 325 324 321 316 312 311 311 311 309 304 299 294 289 283 278 274 270 266 262 258 254 252 252 251 249 246 244 242 240 237 234 233 233 233 234
304 306 308 311 310 301 297 300 300 299 300 302 302 300 299 300 299 296 298 300 300 301 304 307 308 309 310 311 311 311 312 314 314 314 314 315 316 317 317 317 317 317 317 316 317 318 319 321 322 323 323 322 320 316 313 312 312 312 310 306 301 296 291 286 282 278 274 271 266 262 258 255 252 251 250 248 245 241 239 237 234 232 232 231 232
307 311 312 313 308 298 297 301 301 300 302 303 300 297 296 297 296 295 297 298 297 300 304 306 307 309 312 315 315 314 314 314 313 311 312 313 314 315 315 315 316 316 316 316 316 317 319 320 321 321 321 321 318 315 313 312 313 313 311 307 303 298 293 288 284 281 278 276 272 267 263 260 257 253 250 248 246 243 239 236 233 231 230 229 230
311 314 312 311 307 298 296 299 300 301 304 303 299 293 291 291 293 297 299 298 298 301 303 304 306 308 312 316 317 316 315 313 312 311 311 312 312 313 314 315 316 316 316 315 316 317 318 320 320 320 320 319 317 314 313 313 314 314 311 307 303 298 294 290 286 283 281 279 276 271 268 265 262 257 252 249 247 244 240 235 232 230 229 229 228
312 307 300 301 300 291 288 294 297 299 302 299 291 287 287 287 291 298 303 303 303 302 302 303 305 307 310 315 317 317 315 314 313 312 311 311 311 313 314 315 315 315 315 315 316 317 318 318 319 319 319 318 316 315 314 314 315 315 312 308 303 298 294 291 288 286 283 280 278 275 271 268 266 262 256 250 247 245 241 236 231 228 228 228 227
305 294 287 289 292 289 288 292 294 296 298 296 288 285 285 286 290 297 303 305 304 301 301 302 303 305 309 313 317 317 315 314 313 312 311 311 312 313 314 314 314 314 314 315 316 316 317 317 317 317 317 317 316 315 315 315 315 315 312 308 303 298 294 292 290 288 285 282 280 277 274 271 268 264 258 252 247 245 242 237 231 227 226 226 226
304 294 289 289 291 290 289 291 291 290 290 291 289 287 285 287 291 295 300 304 303 300 300 300 301 304 308 312 315 315 314 313 313 312 311 312 312 313 313 314 314 314 314 315 315 315 316 316 316 316 316 316 316 315 315 314 314 314 312 308 304 300 296 293 292 290 287 284 281 279 277 273 270 266 259 252 247 244 242 238 232 226 224 224 224
301 291 285 286 289 291 290 290 291 290 286 284 284 285 286 287 289 292 298 302 301 298 297 298 299 301 305 309 311 312 312 313 312 312 311 311 312 313 313 314 314 314 314 314 314 314 314 314 314 314 315 315 315 314 313 313 313 312 310 307 304 300 297 295 294 292 289 286 283 280 277 273 270 266 260 252 246 243 240 238 233 226 223 222 222
282 278 277 284 291 292 289 288 290 291 287 284 284 287 288 289 289 293 297 299 298 295 295 296 296 297 301 305 308 310 311 312 311 311 311 311 312 313 313 313 313 313 313 313 312 313 313 313 313 314 314 314 314 313 312 312 311 310 308 306 304 300 297 296 296 294 290 287 285 281 276 272 268 265 259 252 245 241 239 237 234 227 223 221 220
270 270 274 285 292 287 282 284 288 288 285 284 286 289 290 291 293 295 297 297 296 295 294 293 293 294 298 303 306 308 310 310 310 310 311 312 312 312 312 312 312 312 312 311 311 311 312 313 313 313 313 312 312 312 311 310 309 308 306 305 303 299 297 297 297 295 291 288 285 281 276 271 266 262 258 251 245 241 237 236 234 228 223 220 219
270 269 270 275 278 276 277 282 285 285 284 285 287 289 292 294 295 296 295 295 295 295 294 292 292 294 297 301 305 307 308 308 309 310 310 311 311 311 311 311 311 311 311 310 310 310 311 312 312 312 311 311 310 310 310 309 307 306 305 304 301 298 297 298 297 295 293 289 285 280 275 269 263 259 256 251 246 242 237 235 234 229 223 220 218
275 273 270 268 269 273 279 283 283 283 282 283 285 289 292 294 294 293 293 293 294 294 293 293 292 294 296 300 303 305 306 308 309 309 310 310 310 310 311 311 311 311 310 309 309 309 311 311 312 311 310 310 310 310 309 307 305 304 303 301 299 297 297 297 296 294 292 290 286 279 272 265 260 256 253 250 247 242 237 235 234 230 224 220 218
279 276 274 273 274 278 282 283 283 281 281 282 286 290 293 293 292 292 291 292 293 294 293 293 292 293 295 298 301 304 307 308 309 309 309 309 309 309 310 310 310 309 308 307 308 309 311 312 312 311 311 311 311 310 308 306 304 302 301 298 296 296 296 295 294 293 291 288 284 276 266 259 255 253 251 249 246 242 238 235 233 231 226 221 218
280 279 279 280 281 282 282 282 281 281 282 285 288 290 291 291 291 291 291 292 293 294 294 293 293 294 296 300 303 306 307 308 308 308 308 308 308 308 308 309 308 307 307 308 309 311 312 314 313 313 312 312 311 310 307 304 303 301 298 296 294 294 293 292 292 290 288 285 280 271 260 252 250 249 249 248 245 242 238 235 233 231 227 222 218
284 283 284 284 285 284 282 280 279 280 283 286 287 288 289 290 290 289 290 291 292 294 296 296 295 297 299 302 304 306 306 306 306 306 306 307 307 306 307 307 306 305 307 310 311 312 314 314 313 313 312 311 310 307 305 303 301 298 295 293 292 291 291 290 289 287 285 282 274 263 253 247 246 247 248 247 245 242 239 236 233 231 228 223 219
290 291 291 292 291 288 284 281 281 282 284 285 286 287 287 287 287 287 288 290 293 295 296 297 297 299 300 302 303 304 304 304 305 305 306 306 307 307 307 306 304 306 309 311 312 313 313 313 312 311 310 309 307 305 302 301 299 296 292 291 290 289 288 288 286 284 282 276 265 255 247 242 242 245 247 248 246 243 240 237 234 232 229 225 221
293 295 295 295 294 291 288 286 286 285 284 284 284 284 285 286 287 289 291 293 294 295 296 297 298 299 300 301 302 302 302 303 303 304 305 307 307 308 307 306 306 309 311 312 312 312 312 311 310 309 308 307 305 303 301 299 296 292 290 289 287 286 286 285 282 280 277 268 256 248 242 238 238 242 247 248 247 243 240 237 234 233 230 226 222
293 294 294 294 292 289 287 285 285 284 284 284 285 286 287 289 291 292 293 293 294 294 295 296 297 298 299 299 300 301 301 302 302 303 305 306 306 307 308 308 309 311 312 312 312 312 311 310 310 309 308 306 304 301 299 297 293 290 288 286 284 283 282 280 278 276 270 258 247 241 236 233 234 239 245 248 247 245 242 238 235 232 230 225 221
291 292 293 293 291 288 286 286 285 285 286 286 288 289 290 291 292 292 292 293 294 295 295 296 297 298 299 299 300 301 302 302 302 304 306 306 307 308 309 310 311 312 312 312 312 311 310 310 310 309 307 305 303 300 297 294 290 287 285 283 281 280 278 275 273 270 259 246 238 233 230 229 231 238 245 248 248 247 244 240 236 232 229 225 220
289 291 292 291 290 289 287 286 286 287 288 290 291 292 292 291 292 292 293 294 295 296 297 298 298 299 299 301 302 302 302 302 303 305 307 307 308 309 310 311 312 312 312 312 312 311 311 311 310 309 307 304 301 299 295 291 287 284 281 279 277 275 273 270 268 261 246 235 230 226 224 226 230 238 245 247 247 247 246 242 237 232 228 224 220
288 290 291 290 289 288 287 287 289 291 292 292 292 291 291 291 292 293 294 296 297 298 299 300 300 300 300 301 302 302 301 302 304 306 306 307 308 310 311 312 313 313 314 314 312 312 311 311 310 308 306 303 300 297 292 288 283 280 277 274 272 270 268 265 261 249 233 225 223 221 220 223 228 236 244 247 245 245 245 243 238 232 226 222 219
289 289 289 288 288 287 288 290 293 294 293 293 292 291 292 293 294 295 296 297 298 299 300 300 300 299 300 300 300 300 302 303 304 305 305 306 308 310 311 312 313 314 315 314 312 312 311 311 310 308 305 303 299 295 290 284 279 275 272 270 268 266 263 260 253 237 222 217 218 217 217 221 227 235 244 246 243 241 242 242 237 231 225 220 216
288 287 285 286 287 289 291 293 294 294 293 292 292 292 292 293 294 295 296 298 298 299 299 299 298 298 298 299 299 301 302 302 303 303 304 306 308 310 311 312 313 314 314 313 311 311 311 310 309 307 304 301 298 293 287 280 273 270 267 265 264 262 258 254 243 225 214 213 215 215 215 220 226 234 242 243 240 237 239 239 234 227 222 218 213
282 281 283 286 289 290 291 292 292 292 291 291 291 292 293 294 295 296 297 297 298 298 298 298 298 299 299 299 299 300 301 301 302 303 304 306 308 310 311 312 313 314 313 312 310 310 310 309 308 306 303 300 297 291 283 274 267 264 262 261 262 259 254 247 234 217 208 209 213 215 216 219 223 230 238 241 238 233 233 235 229 220 217 215 211
278 281 285 287 288 289 289 289 289 290 290 290 291 291 292 293 295 296 296 296 297 298 298 299 299 299 299 299 299 300 301 301 302 303 305 307 308 310 311 312 312 313 312 310 309 309 309 308 307 305 302 299 294 288 279 269 263 260 258 257 258 255 249 240 225 211 204 206 212 215 215 217 220 225 233 238 237 228 224 228 224 216 213 211 208
280 283 286 287 287 287 288 288 288 289 289 290 291 292 293 294 295 296 296 297 298 299 299 299 299 298 298 298 299 300 300 301 302 303 305 307 308 309 310 312 312 311 310 309 308 307 307 306 305 302 300 297 292 285 277 267 261 258 255 253 253 249 243 232 219 208 202 204 211 215 214 214 218 221 226 233 233 222 214 217 219 215 212 210 206
284 286 287 287 287 287 287 288 288 289 290 291 292 294 295 295 296 297 297 298 298 298 298 297 297 297 298 298 299 299 300 300 301 303 304 306 307 308 310 311 310 309 308 306 306 306 306 305 303 301 299 295 291 285 277 267 260 256 252 250 248 244 237 226 214 206 202 202 209 215 214 213 216 219 221 226 228 220 210 208 213 215 214 211 206
286 287 287 287 287 287 287 288 290 291 292 293 294 295 295 296 296 297 297 297 297 297 296 296 296 297 297 298 298 298 299 300 301 303 304 305 307 308 309 309 308 307 306 305 305 305 304 303 302 300 298 295 291 286 278 270 262 256 250 247 244 240 233 223 212 206 202 201 207 214 214 213 215 217 218 220 223 219 211 203 204 212 215 212 207
287 287 286 286 287 288 289 290 292 293 294 294 295 295 295 295 295 295 295 295 295 295 295 295 296 296 297 297 298 298 299 300 301 302 303 305 307 308 308 308 307 306 305 304 305 304 303 302 300 299 297 294 290 285 280 272 263 256 249 245 242 237 230 221 211 205 203 201 205 212 215 214 215 217 215 216 218 218 214 205 198 205 212 213 210
287 287 287 288 290 291 291 292 293 293 293 294 294 294 294 294 294 294 294 294 294 295 295 295 296 296 297 297 297 298 298 299 300 302 303 305 306 307 307 306 305 305 304 304 303 303 301 300 298 296 294 291 287 284 280 273 265 258 250 245 241 235 228 220 211 206 203 201 203 210 215 216 216 216 215 213 214 215 214 210 202 199 207 211 210
287 288 289 290 291 291 292 292 293 293 293 293 293 293 293 293 293 293 293 294 294 295 295 295 296 296 296 297 297 297 298 299 300 301 303 304 305 305 305 304 304 303 303 302 302 301 299 297 295 293 290 288 285 282 278 271 265 259 252 245 239 233 227 221 212 206 203 201 201 207 214 216 216 216 214 212 212 211 212 211 206 200 202 206 206
287 288 289 289 290 290 290 291 291 291 292 292 292 292 293 293 293 293 294 294 295 295 295 295 295 296 296 296 296 297 297 298 300 301 302 303 304 304 303 303 302 302 301 300 300 299 297 295 293 291 288 286 283 280 276 270 264 259 252 244 237 230 226 221 213 207 204 202 201 205 212 215 215 215 214 212 211 210 210 211 208 203 200 202 203
287 287 288 288 289 289 290 290 290 291 291 292 292 293 293 293 294 294 294 294 295 295 295 295 295 295 295 295 296 297 298 299 300 300 301 302 303 303 302 302 301 300 299 298 298 297 295 293 292 289 287 284 280 276 272 268 263 257 251 243 236 230 225 221 215 208 205 203 202 203 209 214 215 214 214 213 211 209 208 209 209 206 201 199 199
286 287 288 288 289 289 290 290 291 291 291 292 293 293 293 294 294 294 294 294 294 294 294 294 294 294 295 295 296 297 298 299 299 300 301 302 302 301 301 301 300 298 298 297 297 295 294 292 290 288 285 283 279 274 269 265 261 256 250 243 237 231 226 222 217 211 207 205 203 203 207 212 214 214 214 213 211 210 208 207 207 207 203 198 196
287 288 288 289 289 290 290 291 291 292 292 293 293 294 294 294 294 294 294 294 294 294 294 294 294 294 295 295 296 297 298 298 299 300 301 301 300 300 300 299 298 297 297 297 296 295 293 291 289 287 284 282 278 274 269 264 259 255 251 244 238 232 227 223 219 213 209 206 204 203 205 209 213 214 214 213 212 210 208 207 206 205 204 200 196
288 288 289 289 290 290 290 291 291 292 292 292 293 293 292 293 293 294 294 294 294 294 294 294 294 295 295 296 297 297 298 299 300 301 300 300 299 299 298 297 296 297 297 297 297 295 293 291 289 287 284 281 278 274 270 265 258 254 251 246 240 234 229 224 220 216 211 208 206 205 205 207 211 213 214 213 212 211 209 208 206 205 204 203 199
288 288 289 289 290 290 290 290 291 291 291 292 292 292 293 294 295 295 295 295 295 295 295 294 295 295 296 296 297 298 299 300 301 300 299 298 297 297 296 295 295 296 297 297 297 296 294 292 290 288 285 282 278 274 271 267 261 255 251 247 243 238 231 227 223 218 214 211 208 206 206 206 209 212 214 214 213 211 210 209 208 206 204 204 202
289 289 289 290 290 290 290 290 291 291 292 292 293 294 295 296 296 296 296 295 295 295 295 295 295 296 296 297 297 297 298 299 299 298 296 295 295 294 294 294 294 295 296 296 297 297 295 293 291 289 286 283 280 275 271 267 264 258 253 248 245 241 235 230 226 222 217 214 211 209 207 207 208 211 213 215 214 213 211 210 209 208 206 204 204
289 289 289 289 289 289 290 291 291 292 293 293 294 295 295 295 295 295 295 295 295 295 296 296 296 296 297 297 297 297 298 298 296 294 292 292 292 292 293 293 293 294 294 295 295 295 294 292 290 288 285 283 280 277 272 269 265 262 258 252 247 244 240 234 229 225 221 217 214 211 209 208 208 210 213 214 215 215 214 211 210 210 209 207 206
287 287 287 288 288 288 289 290 290 291 292 293 293 294 294 294 294 295 295 294 295 295 295 296 296 296 297 297 297 297 297 295 293 290 289 289 289 290 291 292 292 292 292 293 292 291 290 289 288 286 284 282 279 277 275 272 269 266 262 257 252 248 244 240 235 230 225 221 218 215 212 210 210 210 212 213 215 217 216 214 212 211 211 210 208
285 285 285 286 286 287 287 288 289 289 290 291 292 293 294 294 294 294 293 294 294 294 295 295 295 295 296 296 295 295 295 293 290 288 286 286 286 288 289 290 290 291 291 292 292 290 288 287 286 285 284 283 281 279 277 276 273 270 267 264 259 254 250 246 241 236 231 226 222 218 216 213 212 211 211 213 214 217 218 217 214 213 213 213 212
284 284 284 284 285 286 286 287 288 289 290 291 292 293 294 294 293 293 294 294 294 294 294 293 293 294 294 294 294 295 295 294 292 291 289 287 287 288 289 289 289 289 289 290 290 289 288 287 286 286 285 284 283 281 280 278 276 273 270 267 264 260 256 252 247 243 238 232 227 223 220 217 215 213 213 212 213 215 218 219 217 215 214 214 214
Height
10909 10907 10904 10902 10899 10896 10894 10892 10890 10888 10886 10883 10881 10879 10876 10873 10871 10868 10866 10863 10861 10858 10856 10853 10851 10848 10844 10841 10837 10834 10831 10828 10825 10821 10818 10815 10812 10809 10806 10803 10801 10796 10790 10786 10783 10781 10778 10776 10775 10772 10769 10765 10761 10757 10754 10752 10750 10748 10745 10743 10741 10740 10737 10734 10730 10725 10726 10732 10737 10741 10746 10749 10750 10754 10758 10759 10762 10767 10771 10775 10780 10784 10789 10794 10798
10903 10901 10898 10896 10894 10891 10889 10887 10884 10882 10879 10877 10874 10872 10869 10866 10864 10862 10859 10856 10853 10851 10849 10847 10844 10842 10839 10836 10833 10830 10828 10824 10821 10817 10812 10808 10805 10802 10799 10797 10794 10791 10785 10781 10777 10774 10770 10768 10766 10765 10762 10758 10754 10750 10747 10744 10742 10739 10737 10735 10732 10732 10731 10728 10725 10721 10717 10721 10728 10731 10734 10739 10741 10744 10749 10752 10753 10757 10761 10765 10770 10774 10779 10784 10789
10899 10895 10892 10890 10889 10887 10884 10882 10879 10876 10873 10870 10868 10865 10862 10859 10857 10855 10852 10849 10847 10845 10843 10841 10839 10836 10833 10830 10827 10825 10822 10818 10814 10810 10806 10802 10798 10796 10793 10791 10787 10784 10780 10776 10772 10769 10765 10761 10759 10756 10753 10750 10747 10744 10740 10737 10734 10731 10729 10726 10723 10722 10723 10721 10718 10716 10712 10711 10716 10721 10724 10727 10732 10736 10740 10743 10745 10748 10751 10754 10759 10764 10769 10774 10779
10897 10893 10889 10887 10884 10881 10879 10876 10873 10870 10867 10864 10861 10858 10855 10853 10851 10848 10846 10844 10841 10839 10837 10835 10832 10830 10827 10824 10821 10818 10815 10810 10806 10801 10798 10795 10792 10789 10786 10784 10781 10777 10773 10769 10765 10762 10759 10756 10753 10749 10745 10741 10739 10736 10733 10729 10726 10724 10720 10718 10715 10713 10712 10713 10711 10709 10706 10703 10704 10710 10715 10716 10720 10726 10730 10733 10735 10739 10742 10744 10748 10754 10758 10763 10768
10894 10891 10887 10883 10879 10875 10873 10871 10868 10864 10861 10859 10856 10853 10850 10847 10844 10842 10840 10838 10835 10833 10831 10828 10826 10824 10821 10818 10815 10811 10807 10802 10797 10794 10791 10789 10786 10782 10779 10777 10775 10772 10767 10764 10760 10756 10752 10749 10746 10742 10738 10733 10730 10727 10725 10722 10718 10715 10712 10709 10707 10704 10703 10703 10703 10701 10700 10697 10695 10698 10703 10707 10709 10714 10719 10723 10725 10729 10732 10735 10738 10742 10747 10752 10757
10891 10889 10884 10878 10874 10871 10869 10866 10862 10859 10856 10854 10851 10848 10845 10841 10837 10835 10833 10831 10829 10826 10824 10821 10819 10817 10814 10811 10808 10804 10799 10795 10791 10788 10785 10782 10779 10776 10774 10771 10769 10766 10762 10759 10755 10751 10747 10744 10739 10735 10730 10726 10722 10719 10716 10714 10710 10707 10704 10701 10699 10697 10694 10693 10694 10693 10692 10691 10689 10688 10691 10695 10699 10702 10707 10712 10715 10718 10722 10726 10728 10731 10736 10741 10746
10886 10887 10883 10877 10872 10867 10864 10861 10856 10853 10850 10848 10846 10844 10840 10836 10832 10829 10827 10824 10822 10820 10818 10815 10813 10810 10807 10804 10800 10797 10793 10789 10785 10782 10779 10775 10772 10770 10767 10765 10763 10759 10756 10753 10749 10745 10741 10737 10731 10727 10722 10717 10713 10710 10708 10705 10702 10698 10695 10692 10690 10688 10686 10684 10683 10683 10683 10683 10683 10682 10681 10683 10687 10691 10695 10699 10704 10707 10711 10715 10718 10720 10725 10730 10735
10880 10880 10878 10873 10868 10863 10859 10855 10850 10847 10843 10841 10841 10838 10834 10831 10828 10824 10821 10819 10817 10815 10812 10809 10807 10804 10801 10798 10795 10792 10788 10784 10780 10776 10773 10770 10767 10763 10761 10759 10756 10752 10749 10746 10742 10738 10733 10728 10723 10718 10714 10709 10705 10701 10698 10696 10692 10689 10686 10683 10681 10678 10676 10674 10673 10672 10673 10673 10674 10675 10673 10672 10675 10679 10682 10686 10691 10695 10699 10704 10707 10709 10714 10719 10723
10875 10873 10871 10867 10863 10858 10852 10847 10843 10839 10836 10835 10835 10832 10828 10825 10822 10819 10816 10813 10812 10809 10806 10804 10801 10798 10795 10793 10791 10788 10784 10780 10775 10771 10768 10765 10761 10758 10755 10753 10749 10745 10742 10738 10733 10730 10725 10720 10715 10709 10704 10700 10696 10692 10689 10686 10683 10679 10676 10674 10672 10669 10666 10665 10663 10662 10661 10662 10663 10665 10664 10663 10663 10666 10669 10673 10678 10682 10686 10692 10695 10697 10702 10707 10711
10869 10867 10865 10862 10858 10850 10843 10840 10836 10831 10829 10829 10828 10825 10821 10819 10816 10813 10810 10808 10805 10803 10801 10798 10795 10792 10789 10786 10784 10782 10779 10774 10770 10766 10763 10759 10755 10751 10749 10746 10743 10739 10735 10730 10726 10722 10717 10712 10706 10700 10696 10691 10687 10683 10680 10677 10674 10670 10666 10664 10662 10660 10657 10655 10653 10652 10650 10651 10652 10653 10655 10654 10653 10654 10657 10661 10665 10669 10672 10678 10683 10685 10690 10695 10699
10863 10862 10860 10858 10855 10846 10836 10832 10829 10824 10822 10822 10821 10818 10816 10814 10811 10808 10805 10802 10799 10796 10794 10791 10787 10783 10780 10777 10775 10773 10771 10768 10764 10760 10757 10753 10749 10745 10742 10739 10735 10732 10727 10722 10717 10713 10708 10703 10697 10692 10687 10682 10678 10674 10670 10668 10666 10661 10657 10654 10651 10650 10647 10645 10643 10641 10639 10639 10640 10641 10643 10644 10643 10644 10645 10648 10651 10655 10658 10664 10670 10673 10677 10683 10687
10858 10856 10853 10851 10850 10843 10832 10826 10822 10818 10817 10816 10814 10811 10809 10808 10805 10803 10800 10797 10793 10790 10787 10784 10780 10776 10772 10768 10765 10763 10762 10761 10757 10754 10750 10747 10743 10738 10735 10731 10727 10723 10718 10713 10708 10703 10698 10692 10687 10682 10678 10673 10668 10664 10661 10658 10656 10653 10648 10644 10641 10639 10638 10636 10633 10631 10629 10628 10628 10629 10631 10632 10632 10633 10635 10636 10637 10640 10644 10650 10655 10660 10665 10671 10675
10855 10852 10848 10848 10848 10840 10829 10822 10817 10813 10812 10812 10809 10805 10803 10801 10799 10798 10795 10791 10788 10785 10781 10777 10773 10769 10765 10761 10757 10753 10752 10751 10749 10746 10743 10740 10736 10732 10727 10723 10718 10713 10708 10704 10699 10693 10688 10682 10677 10672 10668 10664 10658 10654 10650 10648 10646 10643 10639 10635 10632 10629 10628 10626 10624 10622 10620 10618 10616 10617 10619 10620 10619 10621 10624 10624 10623 10625 10630 10635 10641 10647 10653 10658 10663
10856 10851 10847 10847 10845 10836 10827 10823 10817 10812 10810 10809 10806 10801 10798 10796 10794 10792 10788 10785 10782 10778 10774 10770 10766 10763 10759 10755 10751 10746 10743 10742 10740 10738 10735 10731 10728 10724 10718 10714 10709 10703 10698 10694 10689 10684 10679 10673 10668 10663 10658 10654 10649 10645 10641 10638 10635 10632 10629 10625 10622 10620 10618 10616 10614 10612 10611 10609 10607 10606 10607 10608 10607 10608 10611 10613 10612 10612 10616 10622 10629 10635 10641 10647 10653
10853 10848 10843 10842 10838 10831 10826 10823 10818 10811 10808 10806 10802 10798 10794 10791 10788 10785 10781 10778 10774 10770 10767 10763 10760 10757 10753 10750 10746 10741 10735 10732 10730 10729 10727 10723 10719 10715 10710 10705 10700 10694 10689 10684 10679 10674 10669 10665 10659 10654 10649 10644 10640 10636 10632 10628 10625 10622 10618 10615 10612 10610 10609 10607 10605 10603 10601 10599 10598 10596 10596 10596 10595 10597 10599 10601 10601 10602 10605 10610 10617 10624 10630 10636 10641
10848 10841 10835 10833 10831 10827 10825 10820 10812 10806 10803 10800 10795 10791 10788 10784 10780 10776 10773 10770 10766 10762 10759 10756 10753 10750 10747 10743 10741 10737 10731 10726 10722 10719 10718 10715 10711 10706 10701 10696 10691 10685 10679 10673 10668 10664 10659 10655 10650 10644 10639 10635 10631 10627 10623 10619 10615 10612 10608 10604 10601 10600 10598 10597 10596 10594 10592 10591 10589 10587 10586 10585 10584 10585 10588 10590 10591 10592 10596 10600 10605 10613 10619 10625 10631
10844 10839 10829 10825 10823 10820 10817 10811 10804 10798 10794 10790 10786 10783 10780 10776 10772 10769 10765 10762 10758 10755 10751 10749 10746 10743 10740 10737 10735 10731 10726 10721 10716 10712 10709 10706 10703 10698 10692 10687 10681 10674 10668 10662 10657 10653 10649 10645 10640 10635 10630 10626 10622 10617 10613 10609 10606 10602 10598 10594 10591 10589 10588 10587 10586 10585 10584 10582 10581 10579 10578 10576 10575 10575 10578 10581 10582 10584 10587 10590 10595 10603 10609 10615 10621
10834 10829 10821 10818 10816 10811 10805 10800 10795 10790 10786 10782 10779 10777 10773 10769 10765 10762 10758 10755 10751 10747 10744 10742 10738 10735 10733 10730 10727 10724 10719 10714 10709 10705 10700 10696 10692 10688 10682 10678 10671 10663 10657 10651 10647 10644 10640 10635 10631 10627 10622 10617 10611 10607 10603 10599 10596 10592 10588 10584 10582 10579 10577 10577 10576 10576 10575 10574 10572 10570 10569 10568 10567 10567 10569 10572 10573 10575 10579 10582 10586 10593 10599 10605 10611
10819 10813 10808 10808 10805 10798 10792 10787 10783 10781 10777 10774 10771 10768 10763 10760 10757 10753 10750 10746 10743 10740 10737 10734 10730 10726 10724 10721 10717 10714 10710 10705 10700 10696 10690 10685 10681 10677 10672 10668 10661 10654 10647 10640 10636 10633 10630 10626 10622 10618 10613 10606 10601 10596 10593 10589 10585 10581 10578 10575 10572 10569 10567 10567 10567 10566 10565 10565 10564 10563 10561 10560 10560 10559 10561 10564 10565 10568 10572 10574 10577 10583 10590 10596 10601
10808 10804 10802 10800 10794 10786 10780 10777 10774 10771 10768 10765 10762 10759 10755 10752 10748 10745 10741 10738 10735 10732 10729 10727 10722 10718 10714 10711 10707 10703 10700 10695 10690 10685 10680 10675 10670 10666 10662 10657 10651 10644 10636 10629 10626 10624 10621 10617 10613 10608 10602 10596 10590 10586 10583 10579 10574 10570 10568 10566 10563 10560 10558 10557 10557 10557 10556 10556 10556 10555 10553 10552 10553 10553 10555 10557 10559 10561 10565 10567 10570 10575 10581 10587 10592
10799 10796 10794 10791 10784 10776 10770 10768 10765 10763 10761 10757 10754 10751 10747 10744 10740 10736 10733 10730 10728 10724 10722 10719 10715 10710 10705 10701 10697 10692 10688 10683 10678 10674 10671 10666 10661 10656 10651 10645 10639 10633 10625 10619 10617 10615 10611 10606 10602 10597 10591 10586 10581 10577 10573 10569 10564 10561 10559 10556 10553 10551 10550 10549 10549 10549 10549 10548 10548 10548 10547 10546 10546 10548 10549 10551 10553 10555 10558 10561 10563 10567 10573 10578 10583
10788 10786 10783 10780 10774 10766 10761 10759 10757 10755 10753 10749 10745 10742 10738 10735 10732 10727 10724 10721 10719 10716 10714 10711 10707 10701 10695 10690 10686 10681 10676 10672 10668 10664 10660 10656 10652 10647 10642 10636 10629 10621 10615 10611 10609 10606 10601 10595 10589 10584 10579 10575 10570 10567 10563 10558 10555 10552 10549 10546 10544 10543 10542 10541 10540 10541 10541 10541 10541 10541 10541 10540 10541 10542 10544 10545 10547 10550 10552 10555 10557 10560 10565 10570 10575
10777 10775 10773 10771 10765 10758 10754 10752 10749 10747 10744 10741 10737 10733 10730 10726 10723 10718 10714 10712 10710 10708 10705 10702 10697 10691 10686 10680 10675 10671 10667 10662 10659 10655 10650 10647 10643 10638 10635 10630 10620 10609 10604 10603 10599 10593 10588 10583 10577 10571 10567 10564 10560 10556 10552 10548 10546 10543 10540 10537 10536 10535 10535 10534 10533 10533 10534 10535 10534 10534 10535 10535 10536 10538 10539 10540 10542 10544 10547 10549 10551 10554 10558 10562 10568
10765 10764 10764 10762 10757 10750 10745 10742 10739 10737 10734 10731 10728 10725 10721 10718 10714 10710 10707 10704 10702 10699 10695 10691 10686 10681 10676 10670 10665 10662 10658 10654 10650 10646 10641 10638 10634 10630 10627 10621 10611 10601 10597 10594 10588 10582 10576 10571 10566 10561 10557 10554 10551 10547 10542 10539 10537 10534 10531 10529 10529 10528 10528 10527 10527 10527 10528 10528 10528 10529 10530 10531 10532 10533 10533 10535 10537 10540 10541 10543 10546 10548 10552 10556 10561
10752 10752 10752 10751 10746 10740 10734 10731 10729 10727 10725 10723 10720 10717 10713 10710 10706 10703 10700 10697 10694 10690 10685 10680 10675 10671 10666 10661 10657 10653 10650 10645 10641 10637 10633 10629 10624 10621 10619 10611 10600 10595 10591 10585 10578 10572 10567 10562 10556 10551 10547 10544 10541 10537 10533 10531 10528 10526 10523 10522 10521 10521 10521 10521 10521 10521 10522 10523 10523 10523 10525 10526 10528 10528 10529 10530 10533 10535 10537 10539 10541 10544 10547 10551 10556
10742 10742 10742 10740 10736 10731 10725 10722 10721 10719 10717 10714 10711 10708 10704 10701 10697 10694 10691 10688 10684 10680 10675 10671 10666 10662 10658 10653 10649 10645 10640 10637 10632 10628 10624 10620 10615 10613 10610 10600 10590 10586 10582 10575 10569 10563 10557 10552 10547 10542 10537 10534 10531 10527 10525 10523 10521 10518 10516 10515 10515 10514 10515 10515 10515 10515 10516 10517 10518 10519 10521 10522 10524 10524 10525 10527 10529 10530 10532 10534 10536 10538 10541 10546 10552
10732 10731 10732 10731 10728 10723 10718 10715 10712 10709 10707 10704 10701 10698 10695 10691 10688 10684 10681 10677 10674 10670 10666 10662 10658 10654 10650 10646 10641 10636 10631 10627 10623 10619 10615 10610 10605 10603 10600 10590 10582 10577 10571 10565 10559 10554 10547 10542 10537 10532 10527 10524 10521 10518 10516 10514 10512 10510 10509 10509 10508 10508 10509 10509 10509 10510 10511 10512 10513 10515 10517 10519 10520 10521 10522 10523 10525 10526 10528 10529 10531 10533 10536 10541 10547
10724 10722 10721 10720 10716 10713 10710 10706 10702 10698 10695 10693 10690 10687 10685 10682 10678 10674 10670 10667 10664 10660 10656 10653 10649 10645 10641 10637 10632 10627 10621 10616 10612 10608 10604 10599 10594 10592 10588 10581 10574 10568 10561 10554 10549 10543 10537 10532 10527 10522 10518 10515 10512 10510 10509 10507 10505 10503 10503 10503 10503 10503 10504 10504 10504 10505 10506 10507 10509 10511 10513 10515 10517 10518 10518 10519 10521 10522 10523 10525 10526 10529 10532 10537 10542
10716 10713 10709 10707 10704 10702 10698 10695 10691 10688 10686 10683 10679 10677 10675 10672 10668 10664 10660 10657 10654 10650 10646 10642 10638 10634 10630 10626 10621 10616 10610 10605 10600 10596 10592 10587 10583 10579 10575 10569 10563 10557 10550 10543 10538 10532 10526 10522 10518 10513 10510 10506 10504 10502 10501 10500 10498 10497 10497 10497 10497 10498 10499 10499 10500 10500 10502 10503 10506 10508 10510 10512 10514 10514 10515 10516 10518 10519 10520 10521 10522 10524 10528 10532 10536
10707 10702 10696 10692 10691 10689 10684 10681 10679 10678 10676 10672 10669 10667 10664 10661 10658 10653 10650 10647 10644 10640 10635 10631 10627 10623 10619 10614 10609 10605 10599 10594 10589 10584 10580 10576 10573 10568 10563 10557 10551 10545 10538 10532 10527 10522 10517 10513 10509 10505 10502 10499 10497 10495 10494 10493 10492 10491 10491 10492 10493 10493 10494 10494 10495 10496 10497 10500 10502 10505 10507 10509 10510 10511 10512 10513 10514 10515 10516 10517 10518 10520 10524 10527 10532
10696 10690 10684 10680 10678 10676 10674 10671 10669 10667 10664 10662 10660 10658 10654 10651 10647 10643 10640 10638 10634 10629 10624 10620 10616 10612 10608 10603 10598 10594 10588 10583 10578 10573 10569 10565 10561 10557 10552 10545 10539 10534 10528 10522 10517 10512 10509 10505 10502 10498 10494 10492 10490 10489 10488 10487 10487 10486 10486 10487 10488 10489 10489 10489 10490 10492 10494 10496 10499 10502 10504 10506 10507 10508 10509 10510 10511 10512 10513 10513 10515 10517 10519 10523 10528
10684 10678 10675 10671 10669 10667 10665 10662 10659 10657 10655 10653 10651 10648 10644 10640 10637 10633 10630 10627 10622 10617 10612 10609 10605 10601 10597 10593 10588 10583 10577 10572 10567 10562 10558 10554 10551 10546 10540 10534 10528 10524 10518 10512 10507 10504 10501 10497 10494 10491 10488 10485 10484 10483 10482 10482 10482 10481 10481 10481 10482 10483 10484 10485 10486 10488 10490 10493 10496 10499 10501 10503 10504 10506 10506 10507 10508 10509 10510 10510 10512 10514 10516 10519 10525
10675 10671 10668 10665 10662 10659 10656 10653 10650 10648 10646 10644 10641 10638 10635 10631 10627 10623 10619 10614 10610 10606 10601 10597 10594 10590 10587 10583 10578 10572 10566 10561 10556 10551 10547 10544 10540 10535 10529 10523 10518 10514 10509 10503 10498 10495 10493 10490 10487 10484 10482 10479 10478 10477 10477 10476 10476 10476 10476 10476 10477 10478 10479 10480 10482 10484 10487 10490 10493 10496 10498 10500 10502 10503 10504 10504 10505 10507 10507 10508 10509 10511 10513 10516 10521
10668 10665 10662 10658 10655 10652 10648 10645 10642 10639 10637 10635 10632 10629 10625 10621 10616 10612 10608 10603 10599 10595 10590 10586 10583 10580 10577 10572 10567 10562 10556 10550 10544 10540 10536 10534 10529 10524 10519 10513 10508 10503 10499 10493 10489 10487 10485 10483 10480 10478 10476 10474 10472 10472 10471 10471 10470 10470 10471 10471 10472 10472 10474 10476 10478 10481 10484 10487 10490 10493 10495 10497 10499 10500 10501 10502 10503 10504 10505 10505 10507 10508 10510 10512 10517
10658 10655 10652 10648 10645 10642 10638 10635 10632 10630 10627 10625 10621 10618 10614 10609 10605 10601 10596 10592 10588 10584 10580 10576 10573 10570 10567 10563 10557 10551 10545 10539 10534 10529 10526 10524 10519 10514 10510 10504 10499 10494 10489 10485 10481 10479 10478 10476 10474 10472 10470 10468 10466 10466 10465 10465 10464 10465 10465 10466 10467 10468 10469 10471 10474 10477 10480 10484 10487 10489 10492 10494 10496 10498 10499 10499 10500 10501 10503 10503 10505 10506 10508 10510 10513
10646 10643 10640 10638 10635 10631 10628 10625 10622 10620 10617 10613 10609 10606 10602 10597 10593 10589 10585 10582 10578 10574 10571 10567 10563 10560 10557 10552 10546 10541 10535 10528 10523 10520 10517 10514 10509 10505 10501 10496 10490 10485 10481 10477 10474 10472 10470 10469 10467 10466 10464 10462 10460 10459 10459 10459 10458 10459 10460 10461 10462 10463 10465 10467 10469 10473 10476 10480 10483 10486 10488 10491 10493 10495 10496 10497 10497 10498 10500 10501 10503 10504 10506 10508 10511
10635 10633 10630 10627 10624 10620 10616 10614 10611 10609 10605 10601 10597 10593 10589 10585 10582 10579 10575 10572 10569 10565 10561 10557 10553 10550 10546 10541 10535 10529 10523 10518 10513 10510 10507 10503 10499 10495 10491 10486 10481 10476 10472 10469 10466 10465 10463 10461 10460 10459 10457 10455 10454 10453 10453 10453 10453 10453 10454 10455 10456 10458 10459 10462 10465 10468 10472 10476 10479 10482 10484 10487 10490 10492 10493 10494 10494 10496 10497 10499 10501 10502 10504 10507 10510
10623 10622 10619 10616 10612 10609 10605 10602 10600 10596 10593 10589 10585 10581 10578 10575 10572 10569 10565 10561 10557 10554 10550 10546 10542 10538 10535 10529 10523 10517 10512 10507 10503 10500 10496 10492 10489 10485 10481 10476 10472 10467 10463 10460 10458 10457 10455 10453 10452 10452 10451 10449 10447 10447 10446 10447 10447 10447 10449 10450 10451 10452 10454 10456 10460 10464 10468 10472 10475 10478 10480 10483 10486 10489 10491 10492 10492 10493 10495 10497 10499 10501 10503 10505 10508
10611 10610 10607 10603 10600 10596 10592 10589 10587 10584 10580 10578 10574 10571 10568 10565 10561 10558 10554 10550 10546 10542 10538 10534 10530 10527 10523 10518 10512 10506 10501 10496 10492 10488 10485 10482 10479 10475 10471 10467 10463 10458 10454 10452 10450 10449 10448 10446 10445 10445 10444 10443 10442 10441 10441 10441 10441 10441 10443 10444 10445 10447 10449 10451 10455 10459 10463 10467 10470 10473 10476 10479 10482 10485 10488 10489 10490 10491 10492 10494 10496 10499 10501 10503 10507
10600 10597 10594 10590 10587 10583 10580 10577 10574 10572 10569 10566 10563 10559 10556 10552 10549 10546 10542 10539 10535 10530 10526 10522 10518 10514 10511 10506 10501 10496 10491 10487 10482 10477 10474 10472 10469 10466 10463 10459 10455 10451 10447 10445 10443 10442 10441 10440 10439 10439 10438 10437 10437 10436 10436 10435 10435 10436 10437 10439 10440 10441 10444 10446 10449 10453 10458 10461 10465 10468 10472 10475 10478 10481 10484 10486 10487 10488 10490 10492 10494 10496 10499 10501 10504
10588 10585 10582 10579 10576 10573 10570 10566 10563 10561 10558 10555 10551 10548 10544 10540 10536 10533 10530 10526 10523 10518 10513 10509 10506 10502 10499 10494 10490 10485 10481 10477 10472 10468 10464 10462 10459 10457 10454 10451 10448 10445 10441 10439 10437 10436 10435 10434 10433 10432 10432 10432 10431 10431 10430 10430 10430 10431 10432 10433 10435 10436 10438 10441 10444 10448 10452 10456 10460 10463 10467 10470 10474 10477 10479 10482 10484 10486 10487 10489 10491 10494 10497 10499 10502
10576 10573 10571 10568 10565 10562 10559 10556 10553 10550 10547 10544 10540 10537 10533 10528 10524 10520 10517 10513 10509 10505 10501 10497 10493 10490 10486 10482 10478 10475 10471 10466 10462 10458 10455 10453 10450 10448 10445 10443 10440 10437 10435 10433 10432 10430 10429 10427 10426 10426 10425 10425 10426 10426 10425 10425 10425 10426 10427 10428 10430 10431 10433 10436 10439 10442 10446 10450 10454 10458 10462 10465 10468 10472 10475 10477 10480 10482 10484 10486 10489 10491 10494 10497 10500
10564 10562 10559 10556 10553 10550 10547 10544 10541 10538 10535 10532 10529 10525 10520 10515 10511 10507 10503 10499 10496 10492 10488 10484 10481 10477 10474 10470 10467 10464 10460 10456 10453 10450 10447 10445 10442 10439 10437 10435 10432 10430 10428 10427 10426 10424 10423 10421 10421 10420 10419 10419 10420 10420 10421 10420 10420 10421 10422 10423 10425 10426 10428 10430 10433 10436 10440 10444 10448 10452 10456 10460 10463 10466 10469 10472 10476 10478 10481 10483 10485 10488 10491 10494 10497
10552 10550 10547 10543 10541 10538 10534 10531 10528 10525 10522 10519 10515 10511 10507 10502 10497 10493 10489 10486 10482 10479 10475 10472 10468 10465 10462 10459 10456 10454 10451 10447 10444 10441 10439 10437 10435 10432 10430 10428 10425 10423 10422 10421 10419 10418 10417 10416 10415 10415 10414 10414 10414 10414 10415 10415 10415 10416 10416 10417 10419 10421 10422 10425 10427 10430 10434 10438 10442 10446 10451 10454 10457 10460 10463 10467 10470 10474 10477 10479 10481 10484 10487 10490 10493
10540 10537 10534 10531 10528 10525 10521 10518 10515 10512 10510 10506 10503 10498 10494 10489 10485 10481 10477 10473 10470 10466 10463 10460 10457 10454 10451 10448 10446 10444 10441 10439 10436 10433 10430 10428 10427 10425 10424 10422 10419 10418 10416 10414 10413 10412 10411 10410 10410 10409 10409 10409 10409 10409 10409 10410 10410 10411 10411 10412 10413 10415 10417 10419 10422 10424 10428 10432 10436 10440 10445 10449 10452 10454 10457 10461 10465 10468 10472 10475 10477 10480 10483 10486 10489
10528 10524 10521 10519 10516 10512 10508 10505 10502 10500 10497 10493 10490 10486 10481 10477 10473 10469 10465 10461 10458 10455 10452 10450 10447 10444 10442 10440 10437 10435 10433 10431 10429 10425 10422 10420 10419 10419 10418 10416 10414 10413 10411 10410 10408 10406 10405 10405 10404 10404 10404 10404 10404 10404 10404 10404 10404 10405 10405 10406 10407 10409 10411 10413 10416 10418 10421 10425 10430 10434 10438 10442 10446 10448 10451 10455 10459 10462 10466 10469 10473 10475 10478 10481 10485
10513 10510 10508 10505 10502 10499 10495 10492 10489 10486 10483 10480 10476 10472 10469 10465 10461 10457 10454 10450 10447 10445 10442 10440 10438 10436 10434 10432 10429 10427 10426 10425 10423 10419 10416 10413 10412 10412 10411 10410 10409 10408 10406 10405 10404 10402 10401 10400 10399 10399 10399 10399 10399 10399 10399 10399 10399 10400 10400 10401 10402 10403 10405 10408 10410 10412 10415 10419 10423 10427 10431 10435 10439 10442 10445 10449 10453 10456 10460 10464 10467 10470 10473 10476 10479
10499 10496 10493 10491 10488 10485 10482 10479 10476 10472 10469 10466 10463 10460 10457 10454 10451 10448 10445 10441 10439 10436 10434 10431 10428 10427 10425 10424 10422 10420 10420 10419 10417 10415 10411 10408 10407 10406 10406 10405 10404 10403 10402 10401 10400 10399 10398 10396 10395 10395 10394 10394 10394 10394 10394 10394 10394 10395 10395 10396 10397 10398 10399 10402 10404 10406 10409 10412 10416 10420 10424 10428 10432 10436 10439 10443 10446 10450 10454 10458 10462 10465 10468 10471 10474
10486 10483 10480 10478 10475 10472 10470 10467 10464 10461 10458 10455 10452 10450 10447 10444 10442 10439 10436 10434 10431 10429 10426 10423 10420 10418 10417 10415 10414 10413 10413 10413 10412 10410 10407 10404 10402 10401 10400 10399 10398 10398 10397 10397 10396 10395 10394 10393 10392 10391 10391 10391 10390 10390 10390 10390 10390 10390 10391 10391 10392 10393 10394 10396 10398 10400 10403 10406 10409 10413 10417 10421 10425 10428 10433 10437 10440 10444 10447 10452 10456 10459 10462 10465 10468
10474 10472 10469 10466 10464 10461 10459 10456 10454 10451 10448 10445 10442 10439 10437 10435 10433 10431 10429 10427 10424 10422 10419 10416 10413 10411 10409 10408 10407 10406 10406 10406 10405 10405 10403 10400 10398 10397 10396 10395 10393 10393 10392 10392 10391 10390 10389 10388 10388 10387 10387 10387 10386 10386 10386 10386 10386 10386 10387 10387 10388 10388 10389 10391 10392 10394 10397 10400 10403 10406 10410 10414 10418 10421 10425 10430 10434 10437 10440 10445 10449 10453 10456 10459 10462
10462 10460 10457 10455 10453 10451 10448 10446 10443 10440 10438 10436 10433 10430 10428 10425 10423 10421 10420 10419 10417 10414 10411 10409 10406 10404 10403 10402 10400 10399 10399 10398 10397 10397 10397 10395 10393 10392 10391 10390 10388 10388 10388 10388 10387 10385 10384 10383 10383 10383 10382 10382 10382 10382 10382 10382 10382 10383 10383 10383 10384 10384 10385 10386 10387 10388 10390 10393 10396 10399 10402 10406 10410 10414 10418 10423 10427 10430 10433 10437 10442 10446 10450 10453 10455